Cloud_Cover
97 100 98 96 100 57 5 64 100 26 74 28 27 32 4 0 2 0 0 0 5 33 33 100 94 99 100 100 100 100 100 100 89 71 9 81 100 100 100 100 100 100 100 100 100 99 93 89 91
89 99 99 98 100 82 49 97 100 79 43 20 5 31 73 39 10 18 13 1 0 1 4 70 100 95 100 100 100 100 100 100 100 100 100 100 100 100 100 100 99 100 100 100 100 100 100 100 100
100 100 100 100 100 86 72 29 100 98 30 7 0 33 35 99 26 2 2 2 0 3 0 18 100 80 79 100 100 100 100 100 100 100 100 100 100 100 98 90 100 100 100 100 100 100 100 100 100
97 97 100 100 100 100 69 96 81 100 6 6 5 0 5 34 1 5 22 0 10 4 0 0 4 6 5 16 99 100 100 100 100 100 100 100 100 100 90 77 100 100 100 97 96 100 100 100 100
98 100 98 100 100 100 99 87 96 100 11 5 5 9 33 8 2 20 12 6 20 7 0 2 16 5 5 5 6 59 47 78 100 98 100 100 100 100 100 100 100 100 100 100 100 100 100 100 99
98 78 100 97 100 100 100 100 100 100 59 55 9 4 39 20 3 31 2 7 0 15 0 1 8 4 5 14 78 5 6 23 50 19 49 100 100 99 74 79 62 67 89 100 100 100 100 100 97
100 100 95 100 100 100 100 89 100 100 90 100 42 5 100 60 20 10 32 17 13 40 6 0 0 0 4 6 58 10 5 8 65 47 26 76 80 72 49 83 97 36 100 100 100 100 100 100 100
100 100 100 100 100 100 100 73 96 100 95 100 32 8 92 86 54 37 53 33 26 36 0 0 0 4 5 24 30 18 22 72 58 100 89 98 95 98 99 60 90 100 100 100 100 100 100 100 85
94 100 99 100 100 100 100 93 82 100 25 99 38 21 4 38 36 50 51 52 49 14 10 2 0 5 0 20 82 5 7 70 100 100 36 11 17 66 5 98 100 100 87 100 100 100 100 100 96
79 67 96 100 100 100 100 86 59 69 96 36 63 32 21 14 32 73 64 56 44 80 56 3 5 2 5 5 2 5 52 100 100 85 100 67 20 13 9 100 100 100 100 100 100 100 100 100 100
99 8 56 97 100 100 100 99 99 30 100 22 33 21 16 5 100 3 0 5 12 52 53 17 20 44 8 4 5 28 13 18 11 2 58 57 73 48 74 98 100 100 100 100 100 100 100 100 100
99 10 48 100 100 100 100 100 100 100 81 16 6 5 2 5 66 45 16 1 5 31 26 9 5 8 2 20 15 12 8 2 0 0 79 28 8 5 8 20 8 48 100 100 100 88 91 26 64
100 100 32 100 100 99 100 100 100 100 88 46 27 6 2 5 55 87 11 2 5 1 5 5 5 3 5 7 14 5 5 5 1 0 5 27 16 5 5 11 44 100 64 14 18 5 5 6 0
97 100 88 63 99 100 100 100 100 100 88 11 22 18 5 4 4 46 18 5 1 0 4 5 5 5 5 7 5 10 6 0 5 3 5 5 8 29 5 5 5 5 1 0 0 0 0 0 0
100 100 100 100 96 89 100 100 100 100 37 5 5 36 5 0 5 5 5 5 4 0 0 1 5 0 0 1 5 5 5 5 0 2 5 5 3 4 0 0 3 2 0 0 0 1 60 100 100
10 91 100 100 96 98 100 100 100 100 81 77 4 38 54 65 5 21 90 38 32 1 0 0 0 0 0 1 4 5 5 5 37 0 5 0 0 0 0 0 0 0 5 82 100 100 100 100 67
5 8 100 100 100 96 100 74 100 100 98 56 1 15 43 1 5 29 45 92 5 5 0 0 0 0 0 1 1 59 40 12 50 3 0 0 0 0 0 0 6 36 39 27 22 87 85 100 100
5 5 58 100 100 100 100 100 100 100 100 100 47 73 34 14 1 5 6 8 21 31 2 0 0 0 0 0 1 17 41 49 5 0 0 0 0 0 0 2 30 93 53 47 91 33 100 99 99
5 5 6 88 100 100 100 91 100 100 100 100 30 1 22 5 5 5 21 5 5 18 10 1 0 0 0 0 0 0 4 5 0 0 0 0 0 0 30 34 79 27 53 88 11 5 18 42 65
4 5 78 79 100 100 100 65 94 100 100 100 60 0 0 6 5 9 5 5 4 5 49 17 0 0 0 0 0 0 0 5 4 1 1 1 5 3 0 5 3 2 5 66 81 31 41 26 21
0 43 75 5 85 100 100 77 98 100 100 100 30 5 1 0 3 53 5 5 5 3 5 5 0 0 0 2 5 14 1 0 5 4 5 5 6 5 4 5 5 5 5 4 32 38 62 29 5
5 5 48 96 100 100 100 80 100 77 100 100 10 5 3 0 0 2 3 5 34 4 5 1 5 0 0 0 2 0 0 5 4 5 0 5 3 1 0 5 3 1 3 0 0 6 51 91 45
5 5 90 100 100 100 100 91 98 95 100 100 83 5 2 0 0 0 3 1 5 5 5 5 5 1 0 0 5 5 0 6 5 5 3 1 5 12 1 0 3 5 0 0 0 3 5 11 26
5 6 99 100 100 88 100 100 68 100 100 100 52 5 5 5 0 0 37 69 5 5 5 5 5 5 4 2 0 5 5 18 45 14 5 1 5 5 5 5 3 2 0 0 0 0 2 5 5
1 98 76 100 100 100 100 91 90 100 100 100 87 29 5 5 2 0 2 99 5 4 5 5 5 5 2 5 5 1 5 49 47 100 20 94 67 79 94 5 5 5 5 4 5 5 4 5 66
96 90 21 87 100 100 100 100 77 82 100 96 100 63 70 34 3 0 3 5 71 9 1 45 5 5 5 5 4 14 41 92 100 48 30 87 100 86 94 79 83 14 5 5 5 5 5 5 0
55 100 3 5 100 100 100 100 99 99 100 100 72 60 6 19 27 5 0 5 11 78 0 3 10 5 5 6 20 5 5 100 100 29 15 93 99 12 5 90 100 76 15 33 55 5 5 10 5
5 77 54 25 100 100 98 100 100 100 100 100 100 87 40 78 61 48 4 4 28 62 2 3 2 5 5 3 31 17 100 100 72 100 96 6 5 95 81 7 46 100 32 34 34 69 11 5 0
0 0 11 99 100 100 100 100 100 99 100 100 100 100 95 55 5 5 23 5 5 2 5 0 0 0 5 3 0 7 98 100 99 98 100 100 83 59 16 98 69 54 81 100 100 100 99 97 40
0 0 60 100 100 100 100 100 100 100 100 98 100 100 100 100 12 28 100 7 81 5 5 4 5 5 4 5 0 5 8 29 100 100 79 100 100 71 86 100 87 100 100 66 98 18 42 7 72